Weather History for Edmonton, AB

Change the Weather History Date:

Thursday, March 21, 2013

  Actual Average Record
Temperature  
Mean Temperature 18 °F -  
Max Temperature 21 °F 45 °F 44 °F (2003)
Min Temperature 15 °F 22 °F -18 °F (2002)
Degree Days  
Heating Degree Days 47    
Moisture  
Dew Point 16 °F    
Average Humidity 88    
Maximum Humidity 93    
Minimum Humidity 80    
Precipitation  
Precipitation 0.31 in 0.03 in - ()
Sea Level Pressure  
Sea Level Pressure 29.79 in    
Wind  
Wind Speed 11 mph ()    
Max Wind Speed 21 mph    
Max Gust Speed 22 mph    
Visibility 2.5 miles    
Events Snow    
Averages and records for this station are not official NWS values.
T = Trace of Precipitation, MM = Missing Value Source: Averaged Metar Reports

Daily Weather History Graph

Daily Weather History Graph

Search for Another Location

Airport:

Trip Planner

Search our weather history database for the weather conditions in past years. The results will help you decide how hot, cold, wet, or windy it might be!

Date:

Astronomy

Mar. 21, 2013 Rise Set
Actual Time 7:33 AM MDT 7:50 PM MDT
Civil Twilight 6:58 AM MDT 8:25 PM MDT
Nautical Twilight 6:17 AM MDT 9:06 PM MDT
Astronomical Twilight 5:34 AM MDT 9:50 PM MDT
Moon 1:43 PM MDT (3/21) 4:39 AM MDT (3/21)
Length of Visible Light 13h 26m
Length of Day
12h 16m
Waxing Gibbous, 69% of the Moon is Illuminated
Mar 21
Waxing Gibbous
Mar 27
Full
Apr 2
Last Quarter
Apr 10
New
Apr 18
First Quarter

Hourly Weather History & Observations

Time (MDT) Temp. Windchill Dew Point Humidity Pressure Visibility Wind Dir Wind Speed Gust Speed Precip Events Conditions
12:00 AM 24 °F - 21 °F 83% 29.49 in 15 mi ENE 9.2 mph - -   Overcast
12:00 AM 23.0 °F 13.9 °F 21.2 °F 93% 29.49 in 15.0 mi ENE 8.1 mph - N/A   Overcast
1:00 AM 23.0 °F 12.4 °F 21.2 °F 93% 29.49 in 12.0 mi NNE 10.4 mph - N/A   Overcast
2:00 AM 23.0 °F 11.7 °F 19.4 °F 86% 29.52 in 10.0 mi NNE 11.5 mph - N/A   Overcast
3:00 AM 23.0 °F 10.6 °F 19.4 °F 86% 29.51 in 10.0 mi NE 13.8 mph - N/A   Overcast
3:55 AM 21.2 °F 10.9 °F 19.4 °F 93% 29.55 in 10.0 mi NNE 9.2 mph - N/A Snow Light Snow
4:00 AM 21.2 °F 10.1 °F 19.4 °F 93% 29.55 in 10.0 mi NNE 10.4 mph - N/A Snow Light Snow
5:00 AM 21.2 °F 11.7 °F 17.6 °F 86% 29.57 in 10.0 mi North 8.1 mph - N/A Snow Light Snow
6:00 AM 20 °F - 17 °F 85% 29.62 in 3 mi NNW 8.1 mph - - Snow Light Snow
6:00 AM 19.4 °F 9.5 °F 17.6 °F 93% 29.62 in 3.0 mi NNW 8.1 mph - N/A Snow Light Snow
6:10 AM 19.4 °F 8.6 °F 17.6 °F 93% 29.62 in 2.5 mi NNW 9.2 mph - N/A Snow Light Snow
6:25 AM 19.4 °F 6.6 °F 17.6 °F 93% 29.63 in 1.2 mi NW 12.7 mph - N/A Snow Light Snow
6:30 AM 19.4 °F 7.9 °F 17.6 °F 93% 29.63 in 1.5 mi NW 10.4 mph - N/A Snow Light Snow
6:42 AM 19.4 °F 7.2 °F 17.6 °F 93% 29.64 in 1.0 mi NW 11.5 mph - N/A Snow Light Snow
7:00 AM 19.4 °F 7.2 °F 15.8 °F 86% 29.65 in 1.0 mi NW 11.5 mph - N/A Snow Light Snow
7:08 AM 19.4 °F 6.6 °F 15.8 °F 86% 29.65 in 0.8 mi NNW 12.7 mph - N/A Snow Light Snow
7:28 AM 17.6 °F 3.2 °F 15.8 °F 93% 29.65 in 0.6 mi NNW 15.0 mph - N/A Snow Light Snow
7:35 AM 17.6 °F 2.7 °F 15.8 °F 93% 29.65 in 0.5 mi NNW 16.1 mph - N/A Snow Snow
7:48 AM 17.6 °F 2.7 °F 15.8 °F 93% 29.67 in 0.6 mi NNW 16.1 mph - N/A Snow Light Snow
8:00 AM 17.6 °F 3.7 °F 15.8 °F 93% 29.67 in 0.6 mi NNW 13.8 mph - N/A Snow Light Snow
8:02 AM 17.6 °F 4.3 °F 15.8 °F 93% 29.67 in 0.5 mi NNW 12.7 mph - N/A Snow Snow
8:42 AM 17.6 °F 5.0 °F 15.8 °F 93% 29.69 in 0.5 mi NNW 11.5 mph - N/A Snow Snow
9:00 AM 17.6 °F 5.7 °F 14.0 °F 86% 29.70 in 0.5 mi NNW 10.4 mph - N/A Snow Snow
9:30 AM 17.6 °F 6.4 °F 14.0 °F 86% 29.71 in 0.6 mi NW 9.2 mph - N/A Snow Light Snow
9:47 AM 17.6 °F 6.4 °F 14.0 °F 86% 29.73 in 0.8 mi NW 9.2 mph - N/A Snow Light Snow
10:00 AM 17.6 °F 5.7 °F 14.0 °F 86% 29.74 in 0.8 mi NW 10.4 mph - N/A Snow Light Snow
10:22 AM 17.6 °F 4.3 °F 14.0 °F 86% 29.74 in 0.6 mi NW 12.7 mph - N/A Snow Light Snow
10:25 AM 17.6 °F 5.0 °F 14.0 °F 86% 29.75 in 0.5 mi NW 11.5 mph - N/A Snow Snow
10:40 AM 17.6 °F 3.2 °F 14.0 °F 86% 29.75 in 0.4 mi NW 15.0 mph - N/A Snow Snow
11:00 AM 17.6 °F 3.7 °F 14.0 °F 86% 29.76 in 0.4 mi NW 13.8 mph - N/A Snow Snow
11:02 AM 17.6 °F 3.7 °F 14.0 °F 86% 29.77 in 0.2 mi NNW 13.8 mph - N/A Snow Heavy Snow
11:20 AM 17.6 °F 5.7 °F 14.0 °F 86% 29.77 in 0.4 mi NNW 10.4 mph - N/A Snow Snow
11:44 AM 17.6 °F 5.0 °F 14.0 °F 86% 29.78 in 0.5 mi NNW 11.5 mph - N/A Snow Snow
12:00 PM 17 °F - 14 °F 83% 29.79 in 0 mi NNW 11.5 mph - - Snow Snow
12:00 PM 17.6 °F 5.0 °F 14.0 °F 86% 29.78 in 0.5 mi NNW 11.5 mph - N/A Snow Snow
12:04 PM 17.6 °F 5.7 °F 14.0 °F 86% 29.78 in 0.2 mi North 10.4 mph - N/A Snow Heavy Snow
12:24 PM 17.6 °F 5.7 °F 14.0 °F 86% 29.79 in 0.5 mi NNW 10.4 mph - N/A Snow Snow
12:36 PM 17.6 °F 5.7 °F 14.0 °F 86% 29.80 in 0.6 mi NNW 10.4 mph - N/A Snow Light Snow
12:49 PM 17.6 °F 5.7 °F 14.0 °F 86% 29.80 in 0.8 mi NNW 10.4 mph - N/A Snow Light Snow
1:00 PM 19.4 °F 8.6 °F 15.8 °F 86% 29.81 in 0.6 mi NNW 9.2 mph - N/A Snow Light Snow
1:23 PM 19.4 °F 7.9 °F 15.8 °F 86% 29.82 in 0.5 mi NNW 10.4 mph - N/A Snow Snow
1:45 PM 19.4 °F 7.2 °F 15.8 °F 86% 29.83 in 0.8 mi North 11.5 mph - N/A Snow Light Snow
1:50 PM 19.4 °F 6.6 °F 15.8 °F 86% 29.83 in 1.0 mi NNW 12.7 mph - N/A Snow Light Snow
2:00 PM 19.4 °F 6.0 °F 15.8 °F 86% 29.83 in 1.2 mi NNW 13.8 mph - N/A Snow Light Snow
2:34 PM 21.2 °F 8.3 °F 17.6 °F 86% 29.84 in 1.0 mi North 13.8 mph - N/A Snow Light Snow
3:00 PM 21.2 °F 6.4 °F 17.6 °F 86% 29.86 in 1.2 mi NNW 18.4 mph - N/A Snow Light Snow
3:16 PM 21.2 °F 5.6 °F 15.8 °F 80% 29.86 in 1.0 mi North 20.7 mph - N/A Snow Light Snow
3:42 PM 19.4 °F 5.0 °F 15.8 °F 86% 29.87 in 1.5 mi NNW 16.1 mph 21.9 mph N/A Snow Light Snow
4:00 PM 19.4 °F 4.5 °F 15.8 °F 86% 29.89 in 1.8 mi NNW 17.3 mph - N/A Snow Light Snow
4:30 PM 19.4 °F 4.5 °F 15.8 °F 86% 29.91 in 1.0 mi NNW 17.3 mph - N/A Snow Light Snow
4:34 PM 19.4 °F 5.5 °F 15.8 °F 86% 29.91 in 0.8 mi NNW 15.0 mph - N/A Snow Light Snow
4:45 PM 19.4 °F 5.5 °F 15.8 °F 86% 29.92 in 0.6 mi NNW 15.0 mph 21.9 mph N/A Snow Light Snow
5:00 PM 19.4 °F 7.2 °F 15.8 °F 86% 29.92 in 0.6 mi NNW 11.5 mph 20.7 mph N/A Snow Light Snow
5:20 PM 19.4 °F 6.6 °F 15.8 °F 86% 29.94 in 0.8 mi NNW 12.7 mph - N/A Snow Light Snow
5:27 PM 19.4 °F 5.5 °F 15.8 °F 86% 29.94 in 1.0 mi NNW 15.0 mph - N/A Snow Light Snow
5:40 PM 19.4 °F 6.6 °F 15.8 °F 86% 29.95 in 0.8 mi NNW 12.7 mph 18.4 mph N/A Snow Light Snow
6:00 PM 20 °F - 17 °F 82% 29.96 in 1 mi NNW 12.7 mph - - Snow Light Snow
6:00 PM 19.4 °F 6.6 °F 17.6 °F 93% 29.96 in 0.8 mi NNW 12.7 mph - N/A Snow Light Snow
6:05 PM 19.4 °F 6.6 °F 15.8 °F 86% 29.96 in 1.0 mi North 12.7 mph - N/A Snow Light Snow
6:31 PM 19.4 °F 8.6 °F 17.6 °F 93% 29.97 in 1.5 mi NNW 9.2 mph - N/A Snow Light Snow
6:39 PM 19.4 °F 7.9 °F 17.6 °F 93% 29.98 in 1.0 mi NNW 10.4 mph - N/A Snow Light Snow
6:52 PM 19.4 °F 8.6 °F 17.6 °F 93% 29.98 in 1.2 mi NNW 9.2 mph - N/A Snow Light Snow
6:55 PM 19.4 °F 9.5 °F 17.6 °F 93% 29.98 in 1.5 mi NNW 8.1 mph - N/A Snow Light Snow
7:00 PM 19.4 °F 10.4 °F 17.6 °F 93% 29.99 in 1.5 mi NNW 6.9 mph - N/A Snow Light Snow
7:24 PM 19.4 °F 7.9 °F 17.6 °F 93% 29.99 in 2.5 mi NNW 10.4 mph - N/A Snow Light Snow
8:00 PM 19.4 °F 6.6 °F 15.8 °F 86% 30.01 in 2.5 mi NNW 12.7 mph - N/A Snow Light Snow
8:05 PM 19.4 °F 6.6 °F 15.8 °F 86% 30.01 in 4.0 mi NNW 12.7 mph - N/A Snow Light Snow
9:00 PM 17.6 °F 5.7 °F 15.8 °F 93% 30.04 in 6.0 mi NNW 10.4 mph - N/A Snow Light Snow
10:00 PM 17.6 °F 5.7 °F 14.0 °F 86% 30.06 in 6.0 mi NNW 10.4 mph - N/A Snow Light Snow
10:49 PM 15.8 °F 4.2 °F 14.0 °F 93% 30.08 in 6.0 mi NW 9.2 mph - N/A Snow Light Snow
11:00 PM 15.8 °F 5.1 °F 14.0 °F 93% 30.08 in 8.0 mi NNW 8.1 mph - N/A Snow Light Snow